Weather History for Tekamah, NE

Change the Weather History Date:

Saturday, December 8, 2012

  Actual Average Record
Temperature  
Mean Temperature 32 °F -  
Max Temperature 39 °F 35 °F 64 °F (1984)
Min Temperature 26 °F 16 °F -14 °F (1976)
Degree Days  
Heating Degree Days 32    
Moisture  
Dew Point 27 °F    
Average Humidity 79    
Maximum Humidity 93    
Minimum Humidity 60    
Precipitation  
Precipitation 0.00 in - - ()
Sea Level Pressure  
Sea Level Pressure 29.97 in    
Wind  
Wind Speed 8 mph (East)    
Max Wind Speed 13 mph    
Max Gust Speed -    
Visibility 4 miles    
Events      
Averages and records for this station are not official NWS values.
T = Trace of Precipitation, MM = Missing Value Source: NWS Daily Summary

Daily Weather History Graph

Daily Weather History Graph

Search for Another Location

Airport:

Trip Planner

Search our weather history database for the weather conditions in past years. The results will help you decide how hot, cold, wet, or windy it might be!

Date:

Astronomy

Dec. 08, 2012 Rise Set
Actual Time 7:39 AM CST 4:53 PM CST
Civil Twilight 7:08 AM CST 5:25 PM CST
Nautical Twilight 6:33 AM CST 6:00 PM CST
Astronomical Twilight 5:59 AM CST 6:33 PM CST
Moon 2:01 AM CST (12/8) 1:27 PM CST (12/8)
Length of Visible Light 10h 16m
Length of Day
9h 14m
Waning Crescent, 28% of the Moon is Illuminated
Dec 8
Waning Crescent
Dec 13
New
Dec 19
First Quarter
Dec 28
Full
Jan 4
Last Quarter

Hourly Weather History & Observations

Time (CST) Temp. Windchill Dew Point Humidity Pressure Visibility Wind Dir Wind Speed Gust Speed Precip Events Conditions
12:54 AM 33.1 °F 26.1 °F 28.9 °F 85% 30.01 in 5.0 mi NNW 8.1 mph - N/A   Overcast
1:01 AM 33.8 °F 26.4 °F 28.4 °F 81% 29.99 in 5.0 mi North 9.2 mph - N/A   Overcast
1:15 AM 33.8 °F 27.0 °F 28.4 °F 81% 29.99 in 5.0 mi North 8.1 mph - N/A   Overcast
1:54 AM 33.1 °F 23.9 °F 28.9 °F 85% 30.01 in 3.0 mi NNW 12.7 mph - N/A   Overcast
2:52 AM 32.0 °F 23.0 °F 28.4 °F 87% 30.00 in 2.5 mi North 11.5 mph - N/A   Overcast
2:54 AM 32.0 °F 23.0 °F 28.9 °F 88% 30.02 in 2.5 mi North 11.5 mph - N/A   Overcast
3:19 AM 32.0 °F 24.8 °F 28.4 °F 87% 30.00 in 2.5 mi North 8.1 mph - N/A   Overcast
3:44 AM 32.0 °F 26.4 °F 28.4 °F 87% 30.00 in 3.0 mi North 5.8 mph - N/A   Overcast
3:54 AM 32.0 °F 27.5 °F 28.0 °F 85% 30.02 in 3.0 mi NNW 4.6 mph - N/A   Overcast
4:01 AM 32.0 °F 27.5 °F 28.4 °F 87% 30.00 in 3.0 mi North 4.6 mph - N/A   Overcast
4:54 AM 30.9 °F 25.2 °F 27.0 °F 85% 30.02 in 3.0 mi North 5.8 mph - N/A   Overcast
5:10 AM 30.2 °F 24.3 °F 26.6 °F 86% 30.00 in 3.0 mi NNW 5.8 mph - N/A   Overcast
6:26 AM 28.4 °F 21.2 °F 24.8 °F 86% 29.99 in 4.0 mi NNE 6.9 mph - N/A   Scattered Clouds
6:54 AM 30.0 °F 25.2 °F 27.0 °F 88% 30.02 in 4.0 mi North 4.6 mph - N/A   Mostly Cloudy
7:41 AM 26.6 °F - 24.8 °F 93% 29.99 in 2.0 mi Calm Calm - N/A   Overcast
7:54 AM 27.0 °F - 24.1 °F 89% 30.01 in 2.0 mi Calm Calm - N/A   Overcast
8:52 AM 30.2 °F 26.7 °F 26.6 °F 86% 30.01 in 2.0 mi SSE 3.5 mph - N/A   Overcast
8:54 AM 30.0 °F - 26.1 °F 85% 30.03 in 1.8 mi Calm Calm - N/A   Overcast
9:47 AM 30.2 °F 26.7 °F 26.6 °F 86% 30.01 in 2.0 mi ESE 3.5 mph - N/A   Overcast
9:54 AM 30.9 °F 27.5 °F 27.0 °F 85% 30.02 in 2.0 mi East 3.5 mph - N/A   Overcast
10:11 AM 32.0 °F 28.7 °F 28.4 °F 87% 30.00 in 3.0 mi East 3.5 mph - N/A   Overcast
10:54 AM 34.0 °F 29.8 °F 27.0 °F 75% 30.02 in 4.0 mi SE 4.6 mph - N/A   Haze
11:31 AM 35.6 °F 29.2 °F 26.6 °F 70% 29.99 in 4.0 mi SSE 8.1 mph - N/A   Haze
11:54 AM 35.1 °F 29.3 °F 27.0 °F 72% 30.00 in 4.0 mi SSE 6.9 mph - N/A   Haze
12:18 PM 35.6 °F 28.0 °F 26.6 °F 70% 29.97 in 4.0 mi SE 10.4 mph - N/A   Haze
12:40 PM 35.6 °F 28.6 °F 26.6 °F 70% 29.95 in 4.0 mi SE 9.2 mph - N/A   Haze
12:54 PM 37.0 °F 29.8 °F 27.0 °F 67% 29.96 in 4.0 mi SSE 10.4 mph - N/A   Haze
1:54 PM 37.9 °F 30.9 °F 27.0 °F 65% 29.92 in 4.0 mi SE 10.4 mph - N/A   Haze
2:54 PM 37.9 °F 30.0 °F 26.1 °F 62% 29.92 in 5.0 mi SSE 12.7 mph - N/A   Haze
3:54 PM 39.0 °F 31.8 °F 26.1 °F 60% 29.90 in 5.0 mi SE 11.5 mph - N/A   Haze
4:54 PM 37.9 °F 33.5 °F 27.0 °F 65% 29.90 in 6.0 mi SSE 5.8 mph - N/A   Haze
5:54 PM 36.0 °F 32.1 °F 26.1 °F 67% 29.91 in 6.0 mi SSE 4.6 mph - N/A   Haze
6:54 PM 37.9 °F 32.7 °F 27.0 °F 65% 29.88 in 6.0 mi ESE 6.9 mph - N/A   Haze
7:54 PM 37.0 °F 28.9 °F 27.0 °F 67% 29.88 in 6.0 mi SE 12.7 mph - N/A   Haze
9:54 PM 37.0 °F 29.8 °F 28.0 °F 70% 29.90 in 6.0 mi SE 10.4 mph - N/A   Haze
10:54 PM 37.9 °F 31.5 °F 30.0 °F 73% 29.88 in 6.0 mi SE 9.2 mph - N/A   Haze
11:54 PM 36.0 °F 27.5 °F 30.0 °F 79% 29.86 in 4.0 mi SE 12.7 mph - N/A   Haze